Location: Devargunta
(16.7631°N, 80.9077°E)
Time: 16:56:32
(UTC+00:00)

Cosmos 1300 - Pass Details

Date: 19 January 2021
Orbit: 511 x 512 km, 82.5° (Epoch: 25 February)

Event Time Altitude Azimuth Distance (km) Brightness Sun altitude
Rises 13:03:48 0° 345° (NNW) 2,617 6.3 -9.5°
Reaches altitude 10° 13:06:00 10° 337° (NNW) 1,730 5.4 -10.0°
Maximum altitude 13:09:34 40° 267° (W) 763 4.2 -10.8°
Drops below altitude 10° 13:13:08 10° 197° (SSW) 1,725 5.8 -11.6°
Sets 13:15:20 0° 190° (S) 2,609 6.7 -12.1°
